Погода в Банном

Россия / Оренбургская область     51°20′50″N   58°43′59″E
темп.,
°C
ветер,
м/с
пор.,
м/с
влажн.,
%
обл.,
%
осадки,
мм/ч
давл.,
гПа
погр.,
м
11 мая, вт
вт1123:00+15вюв4861100 0.0 1022515
02:00+12в24750 0.0 102388
05:00+10всв33795 0.0 102464
08:00+14св35645 0.0 1026362
11:00+19всв56401 0.0 10261677
14:00+21в45290 0.0 10261978
17:00+22в45253 0.0 10262193
20:00+18в34365 0.0 1026278
12 мая, ср
ср1223:00+14вюв354593 0.0 102783
02:00+12вюв235239 0.0 102852
05:00+11в225613 0.0 102931
08:00+14в345117 0.0 1030256
11:00+20вюв453493 0.0 10301501
14:00+22вюв342796 0.0 10291842
17:00+23вюв332620 0.0 10281867
20:00+20вюв233790 0.0 1028278
13 мая, чт
чт1323:00+17всв224187 0.0 102812
02:00+15всв11455 0.0 102811
05:00+13ссв11490 0.0 102811
08:00+17сз00430 0.0 1029133
11:00+22в11320 0.0 1029808
14:00+24вюв11240 0.0 10281729
17:00+25св21220 0.0 10271883
20:00+22в22330 0.0 1026138
14 мая, пт
пт1423:00+19сз11320 0.0 102711
02:00+17сз22394 0.0 102714
05:00+15ссз22500 0.0 102812
08:00+19ссз22450 0.0 1028148
11:00+24с11300 0.0 1028679
14:00+27з22220 0.0 10272047
17:00+28ссз21220 0.0 10262138
20:00+24ссз33320 0.0 102596
15 мая, сб
сб1523:00+20ссз46414 0.0 1025105
02:00+18с224628 0.0 102533
05:00+18ссз224883 0.0 102529
08:00+21с23445 0.0 1025183
11:00+26ссв23314 0.0 1024816
14:00+28ссв11255 0.0 10232776
17:00+29ссз2321100 0.0 10222411
20:00